Location: Crescent
(42.8242°N, 73.7329°W)
Time: 07:40:13
(UTC+00:00)

Vanguard 1 Rocket - Pass Details

Date: 22 February 2026
Orbit: 653 x 4214 km, 34.3° (Epoch: 12 March)

Event Time Altitude Azimuth Distance (km) Brightness Sun altitude
Rises 16:27:29 0° 221° (SW) 3,528 10.9 36.3°
Reaches altitude 10° 16:29:49 10° 210° (SSW) 2,839 10.7 36.4°
Maximum altitude 16:35:58 34° 148° (SSE) 2,255 11.2 36.6°
Drops below altitude 10° 16:46:28 10° 90° (E) 4,926 11.3 36.9°
Sets 16:52:03 0° 84° (E) 6,575 11.8 37.0°
